Regional Weather Roundup
Issued by NWS New Orleans/Baton Rouge, LA

Home | Current Version | Previous Version | Text Only | Print | Product List | Glossary On
Versions: 1 2 3 4 5 6 7 8 9 10 11 12 13 14 15 16 17 18 19 20 21 22 23 24 25 26 27 28 29 30 31 32 33 34 35 36 37 38 39 40 41 42 43 44 45 46 47 48 49 50
000
ASUS44 KLIX 020211
RWRLIX
NEW ORLEANS REGIONAL WEATHER ROUNDUP
NATIONAL WEATHER SERVICE NEW ORLEANS LA
900 PM CDT TUE SEP 01 2015

NOTE: "FAIR" INDICATES FEW OR NO CLOUDS BELOW 12,000 FEET WITH NO
      SIGNIFICANT WEATHER AND/OR OBSTRUCTIONS TO VISIBILITY.
      SKY/WX - SKY CONDITION AND SIGNIFICANT WEATHER.
      TMP - AIR TEMPERATURE.     DP    - DEWPOINT TEMPERATURE.
      RH  - RELATIVE HUMIDITY.   PRES  - PRESSURE.
      HI  - HEAT INDEX.          WCI   - WIND CHILL INDEX.

*  THESE STATIONS ARE NOT NWS OR FAA STATIONS AND ARE NOT UNDER
   NWS QUALITY CONTROL.

LAZ038-040-048-061>063-065>067-069-020300-
SOUTHEAST LOUISIANA

CITY           SKY/WX    TMP DP  RH WIND       PRES   REMARKS
N.O. AUDUBON   NOT AVBL
N.O. INTL ARPT CLOUDY    82  72  71 S6        30.03R
N.O. LAKEFRONT MOCLDY    83  71  67 SE5       30.04R
N.O. DOWNTOWN*   N/A     86  73  66 SE6       30.04S
RESERVE*         N/A     80  75  84 CALM      30.04R
SLIDELL        PTCLDY    77  74  90 N3        30.03R
BATON ROUGE    CLOUDY    81  72  74 S5        30.03R
BOOTHVILLE     MOCLDY    82  76  81 CALM      30.04R
BELLE CHASSE   MOCLDY    82  74  76 S3        30.03R
BOGALUSA*      NOT AVBL
GALLIANO*      CLOUDY    79  74  84 CALM      30.03S
NEW ROADS*       N/A     79  73  80 W6        30.04R
GONZALES*        N/A     75  75 100 CALM      30.03R
HAMMOND*       PTCLDY    79  70  73 CALM      30.05S
HOUMA*         CLOUDY    76  73  91 CALM      30.04R
PORT FOURCHON* CLEAR     86  72  62 VRB6      30.04S

$$

MSZ070-080>082-020300-
SOUTHERN MISSISSIPPI

CITY           SKY/WX    TMP DP  RH WIND       PRES   REMARKS
MCCOMB         MOCLDY    82  67  60 CALM      30.05S
GULFPORT       PTCLDY    79  72  79 CALM      30.03R
BILOXI         PTCLDY    80  72  75 W2        30.03R
PASCAGOULA     PTCLDY    74  72  93 CALM      30.04R
STENNIS ARPT*  CLEAR     73  68  83 CALM      30.04R

$$

COASTAL OBSERVATIONS
LAKE AND NEARSHORE STATIONS

STATION/POSITION TIME  TEMP    WIND        PRES    WAVE
                       AIR SEA DIR/SP/G            HT/PER
                 (UTC) (F)     (DEG/KT/KT) (MB)    (FT/S)
PASCAGOULA       0100   84     250/  7/  9 1016.3
WAVELAND YACHT   0100   82 86  220/  3/  4 1017.2
GRAND ISLE       0100   85 87  130/  5/  7 1016.8
SOUTHWEST PASS   0100   84 87  110/  9/ 12 1017.2
NEW CANAL        0100   85 86  160/  2/  5 1015.9
SHELL BEACH      0100   83 87  140/  5/  6 1016.2

OFFSHORE STATIONS

STATION/POSITION TIME  TEMP    WIND        PRES    WAVE
                       AIR SEA DIR/SP/G            HT/PER
                 (UTC) (F)     (DEG/KT/KT) (MB)    (FT/S)
64 S DAUPHIN ISL 0150   84 86  120/  6/  8 1017.2    1/ 4

$$




USA.gov is the U.S. government's official web portal to all federal, state and local government web resources and services.